| time (UTC) | temp C | wind direction | speed KPH | gust KPH | rain 1hr cm | rain 24hr cm | rain mn cm | humidity % | barometer mb |
| 20260505041528 | 11 | 103 | 0.0 | 4.8 | 0.00 | 0.00 | 0.00 | 70 | 1004.2 |
| 20260505040026 | 11 | 105 | 0.0 | 3.2 | 0.00 | 0.00 | 0.00 | 72 | 1003.9 |
| 20260505034523 | 11 | 130 | 0.0 | 1.6 | 0.00 | 0.00 | 0.00 | 73 | 1003.9 |
| 20260505033025 | 11 | 148 | 0.0 | 1.6 | 0.00 | 0.00 | 0.00 | 72 | 1003.9 |
| 20260505031523 | 10 | 122 | 0.0 | 1.6 | 0.00 | 0.00 | 0.00 | 73 | 1004.0 |
| 20260505030022 | 10 | 137 | 0.0 | 1.6 | 0.00 | 0.00 | 0.00 | 73 | 1003.9 |
| 20260505024520 | 11 | 151 | 0.0 | 1.6 | 0.00 | 0.00 | 0.00 | 71 | 1004.0 |
| 20260505023020 | 11 | 112 | 0.0 | 1.6 | 0.00 | 0.00 | 0.00 | 70 | 1004.1 |
| 20260505021521 | 11 | 143 | 0.0 | 1.6 | 0.00 | 0.00 | 0.00 | 70 | 1004.2 |
| 20260505020018 | 11 | 148 | 0.0 | 1.6 | 0.00 | 0.00 | 0.00 | 67 | 1004.0 |
| 20260505014518 | 11 | 160 | 0.0 | 3.2 | 0.00 | 0.00 | 0.00 | 68 | 1004.0 |
| 20260505013017 | 11 | 153 | 0.0 | 3.2 | 0.00 | 0.00 | 0.00 | 69 | 1003.9 |
| 20260505011517 | 12 | 153 | 0.0 | 3.2 | 0.00 | 0.00 | 0.00 | 66 | 1003.9 |
| 20260505010014 | 12 | 172 | 0.0 | 1.6 | 0.00 | 0.00 | 0.00 | 63 | 1003.8 |
| 20260505004513 | 13 | 153 | 0.0 | 3.2 | 0.00 | 0.00 | 0.00 | 60 | 1003.8 |
| 20260505003020 | 14 | 114 | 0.0 | 1.6 | 0.00 | 0.00 | 0.00 | 56 | 1003.7 |
| 20260505001512 | 15 | 113 | 0.0 | 1.6 | 0.00 | 0.00 | 0.00 | 52 | 1003.7 |
| 20260505000011 | 16 | 111 | 0.0 | 1.6 | 0.00 | 0.00 | 0.00 | 49 | 1003.6 |
| 20260504234511 | 18 | 121 | 0.0 | 1.6 | 0.00 | 0.00 | 0.00 | 43 | 1003.6 |
| 20260504233010 | 21 | 121 | 0.0 | 1.6 | 0.00 | 0.00 | 0.00 | 37 | 1003.4 |
| 20260504231509 | 22 | 220 | 0.0 | 4.8 | 0.00 | 0.00 | 0.00 | 33 | 1003.4 |
| 20260504230009 | 22 | 143 | 0.0 | 4.8 | 0.00 | 0.00 | 0.00 | 33 | 1003.4 |
| 20260504224507 | 22 | 243 | 0.0 | 9.7 | 0.00 | 0.00 | 0.00 | 33 | 1003.5 |
| 20260504223005 | 22 | 195 | 3.2 | 14.5 | 0.00 | 0.00 | 0.00 | 31 | 1003.7 |
| 20260504221504 | 23 | 240 | 3.2 | 11.3 | 0.00 | 0.00 | 0.00 | 31 | 1003.7 |
| 20260504220003 | 22 | 237 | 6.4 | 16.1 | 0.00 | 0.00 | 0.00 | 31 | 1003.8 |
| 20260504214501 | 23 | 264 | 6.4 | 14.5 | 0.00 | 0.00 | 0.00 | 30 | 1003.9 |
| 20260504213058 | 22 | 153 | 4.8 | 16.1 | 0.00 | 0.00 | 0.00 | 32 | 1003.9 |
| 20260504211556 | 22 | 236 | 6.4 | 16.1 | 0.00 | 0.00 | 0.00 | 33 | 1004.0 |
| 20260504210106 | 22 | 239 | 9.7 | 19.3 | 0.00 | 0.00 | 0.00 | 33 | 1004.2 |
| 20260504204559 | 22 | 248 | 9.7 | 20.9 | 0.00 | 0.00 | 0.00 | 35 | 1004.2 |
| 20260504203103 | 22 | 297 | 8.0 | 29.0 | 0.00 | 0.00 | 0.00 | 35 | 1004.3 |
| 20260504201547 | 22 | 160 | 9.7 | 20.9 | 0.00 | 0.00 | 0.00 | 35 | 1004.5 |
| 20260504200045 | 21 | 229 | 4.8 | 27.4 | 0.00 | 0.00 | 0.00 | 38 | 1004.6 |
| 20260504194541 | 21 | 216 | 8.0 | 20.9 | 0.00 | 0.00 | 0.00 | 39 | 1004.9 |
| 20260504193038 | 21 | 216 | 9.7 | 25.7 | 0.00 | 0.00 | 0.00 | 39 | 1005.1 |
| 20260504191535 | 21 | 118 | 14.5 | 25.7 | 0.00 | 0.00 | 0.00 | 38 | 1005.4 |
| 20260504190040 | 21 | 238 | 11.3 | 22.5 | 0.00 | 0.00 | 0.00 | 39 | 1005.6 |
| 20260504184533 | 21 | 229 | 6.4 | 20.9 | 0.00 | 0.00 | 0.00 | 41 | 1005.7 |
| 20260504183032 | 21 | 217 | 11.3 | 20.9 | 0.00 | 0.00 | 0.00 | 41 | 1005.9 |
| 20260504181525 | 20 | 210 | 4.8 | 20.9 | 0.00 | 0.00 | 0.00 | 43 | 1006.1 |
| 20260504180022 | 20 | 258 | 8.0 | 25.7 | 0.00 | 0.00 | 0.00 | 44 | 1006.1 |
| 20260504174520 | 19 | 203 | 12.9 | 29.0 | 0.00 | 0.00 | 0.00 | 45 | 1006.1 |
| 20260504173018 | 19 | 284 | 12.9 | 27.4 | 0.00 | 0.00 | 0.00 | 45 | 1006.3 |
| 20260504171517 | 19 | 230 | 12.9 | 24.1 | 0.00 | 0.00 | 0.00 | 45 | 1006.4 |
| 20260504081601 | 8 | 176 | 3.2 | 9.7 | 0.00 | 0.00 | 0.00 | 58 | 1009.1 |
| 20260504044532 | 10 | 243 | 3.2 | 9.7 | 0.00 | 0.00 | 0.00 | 55 | 1009.8 |
| 20260504043030 | 10 | 155 | 0.0 | 9.7 | 0.00 | 0.00 | 0.00 | 55 | 1009.8 |